Location: Domont
(49.0278°N, 2.3264°E)
Time: 01:18:31
(UTC+00:00)

Orbus 7S? - Pass Details

Date: 31 May 2022
Orbit: 340 x 6374 km, 56.9° (Epoch: 04 July)

Event Time Altitude Azimuth Distance (km) Brightness Sun altitude
Rises 03:07:15 0° 274° (W) 6,231 8.3 -6.4°
Reaches altitude 10° 03:10:19 10° 277° (W) 5,745 8.1 -6.1°
Maximum altitude 03:32:12 73° 4° (N) 5,340 8.4 -3.4°
Drops below altitude 10° 04:14:51 10° 94° (E) 9,721 10.6 2.3°
Sets 04:22:17 0° 98° (E) 10,376 10.7 3.4°
